| time (UTC) | temp F | wind direction | speed MPH | gust MPH | rain 1hr in | rain 24hr in | rain mn in | humidity % | barometer mb |
| 20260509004532 | 63 | 207 | 13.0 | 24.0 | 0.00 | 0.00 | 0.00 | 41 | 1021.1 |
| 20260509003031 | 64 | 211 | 14.0 | 22.0 | 0.00 | 0.00 | 0.00 | 39 | 1021.1 |
| 20260509001530 | 64 | 200 | 14.0 | 23.0 | 0.00 | 0.00 | 0.00 | 38 | 1020.9 |
| 20260509000041 | 65 | 204 | 12.0 | 20.0 | 0.00 | 0.00 | 0.00 | 37 | 1020.8 |
| 20260508234529 | 65 | 215 | 12.0 | 21.0 | 0.00 | 0.00 | 0.00 | 36 | 1020.8 |
| 20260508233104 | 65 | 208 | 12.0 | 21.0 | 0.00 | 0.00 | 0.00 | 35 | 1020.7 |
| 20260508231525 | 65 | 204 | 13.0 | 22.0 | 0.00 | 0.00 | 0.00 | 35 | 1020.7 |
| 20260508230031 | 66 | 203 | 12.0 | 22.0 | 0.00 | 0.00 | 0.00 | 33 | 1020.6 |
| 20260508224646 | 66 | 219 | 12.0 | 24.0 | 0.00 | 0.00 | 0.00 | 32 | 1020.6 |
| 20260508223030 | 66 | 211 | 11.0 | 20.0 | 0.00 | 0.00 | 0.00 | 32 | 1020.5 |
| 20260508220030 | 65 | 219 | 13.0 | 21.0 | 0.00 | 0.00 | 0.00 | 33 | 1020.4 |
| 20260508214530 | 65 | 220 | 14.0 | 23.0 | 0.00 | 0.00 | 0.00 | 33 | 1020.4 |
| 20260508213032 | 64 | 227 | 14.0 | 22.0 | 0.00 | 0.00 | 0.00 | 34 | 1020.5 |
| 20260508211645 | 64 | 235 | 15.0 | 22.0 | 0.00 | 0.00 | 0.00 | 34 | 1020.4 |
| 20260508210031 | 64 | 241 | 14.0 | 25.0 | 0.00 | 0.00 | 0.00 | 35 | 1020.3 |
| 20260508203032 | 63 | 230 | 12.0 | 22.0 | 0.00 | 0.00 | 0.00 | 36 | 1020.3 |
| 20260508201530 | 63 | 237 | 14.0 | 24.0 | 0.00 | 0.00 | 0.00 | 37 | 1020.3 |
| 20260508200032 | 62 | 232 | 13.0 | 24.0 | 0.00 | 0.00 | 0.00 | 37 | 1020.2 |
| 20260508194615 | 62 | 233 | 14.0 | 25.0 | 0.00 | 0.00 | 0.00 | 38 | 1020.3 |
| 20260508193105 | 61 | 239 | 13.0 | 25.0 | 0.00 | 0.00 | 0.00 | 42 | 1020.3 |
| 20260508191529 | 58 | 345 | 7.0 | 24.0 | 0.00 | 0.00 | 0.00 | 55 | 1020.4 |
| 20260508190029 | 55 | 32 | 8.0 | 13.0 | 0.00 | 0.00 | 0.00 | 60 | 1020.3 |
| 20260508183030 | 54 | 16 | 8.0 | 14.0 | 0.00 | 0.00 | 0.00 | 65 | 1020.3 |
| 20260508181533 | 52 | 19 | 6.0 | 10.0 | 0.00 | 0.00 | 0.00 | 68 | 1020.2 |
| 20260508180031 | 51 | 25 | 8.0 | 13.0 | 0.00 | 0.00 | 0.00 | 68 | 1020.1 |
| 20260508174614 | 52 | 45 | 8.0 | 14.0 | 0.00 | 0.00 | 0.00 | 65 | 1020.1 |
| 20260508173030 | 55 | 63 | 4.0 | 7.0 | 0.00 | 0.00 | 0.00 | 52 | 1019.8 |
| 20260508171530 | 55 | 213 | 2.0 | 7.0 | 0.00 | 0.00 | 0.00 | 52 | 1019.7 |
| 20260508170030 | 55 | 200 | 5.0 | 12.0 | 0.00 | 0.00 | 0.00 | 53 | 1019.6 |
| 20260508164530 | 55 | 199 | 6.0 | 13.0 | 0.00 | 0.00 | 0.00 | 56 | 1019.6 |
| 20260508163030 | 54 | 225 | 11.0 | 19.0 | 0.00 | 0.00 | 0.00 | 58 | 1019.6 |
| 20260508161530 | 55 | 229 | 13.0 | 20.0 | 0.00 | 0.00 | 0.00 | 59 | 1019.6 |
| 20260508160029 | 55 | 220 | 14.0 | 22.0 | 0.00 | 0.00 | 0.00 | 61 | 1019.7 |
| 20260508154603 | 55 | 211 | 15.0 | 25.0 | 0.00 | 0.00 | 0.00 | 61 | 1019.6 |
| 20260508153030 | 55 | 216 | 16.0 | 24.0 | 0.00 | 0.00 | 0.00 | 62 | 1019.5 |
| 20260508151537 | 56 | 222 | 16.0 | 29.0 | 0.00 | 0.00 | 0.00 | 62 | 1019.2 |
| 20260508150035 | 56 | 214 | 13.0 | 23.0 | 0.00 | 0.00 | 0.00 | 62 | 1019.0 |
| 20260508144530 | 56 | 220 | 14.0 | 25.0 | 0.00 | 0.00 | 0.00 | 59 | 1018.8 |
| 20260508143030 | 55 | 235 | 8.0 | 20.0 | 0.00 | 0.00 | 0.00 | 56 | 1018.5 |
| 20260508141607 | 56 | 246 | 6.0 | 17.0 | 0.00 | 0.00 | 0.00 | 55 | 1018.4 |
| 20260508140038 | 56 | 252 | 6.0 | 14.0 | 0.00 | 0.00 | 0.00 | 55 | 1018.2 |
| 20260508134530 | 56 | 251 | 7.0 | 15.0 | 0.00 | 0.00 | 0.00 | 55 | 1018.0 |
| 20260508133032 | 56 | 236 | 6.0 | 17.0 | 0.00 | 0.00 | 0.00 | 56 | 1017.9 |
| 20260508131530 | 56 | 241 | 8.0 | 18.0 | 0.00 | 0.00 | 0.00 | 57 | 1017.8 |
| 20260508130032 | 56 | 243 | 10.0 | 22.0 | 0.00 | 0.00 | 0.00 | 58 | 1017.7 |
| 20260508124644 | 56 | 246 | 12.0 | 22.0 | 0.00 | 0.00 | 0.00 | 60 | 1017.7 |
| 20260508123109 | 56 | 252 | 9.0 | 20.0 | 0.00 | 0.00 | 0.00 | 61 | 1017.7 |
| 20260508121530 | 56 | 249 | 7.0 | 22.0 | 0.00 | 0.00 | 0.00 | 64 | 1017.6 |
| 20260508120027 | 50 | 256 | 5.0 | 12.0 | 0.00 | 0.00 | 0.00 | 78 | 1017.5 |
| 20260508113031 | 41 | 191 | 0.0 | 2.0 | 0.00 | 0.00 | 0.00 | 85 | 1017.3 |
| 20260508111605 | 42 | 227 | 0.0 | 2.0 | 0.00 | 0.00 | 0.00 | 85 | 1017.2 |
| 20260508110030 | 41 | 247 | 0.0 | 2.0 | 0.00 | 0.00 | 0.00 | 84 | 1017.1 |
| 20260508103030 | 40 | 270 | 0.0 | 3.0 | 0.00 | 0.00 | 0.00 | 83 | 1017.1 |
| 20260508101541 | 40 | 266 | 0.0 | 4.0 | 0.00 | 0.00 | 0.00 | 83 | 1017.1 |
| 20260508094604 | 41 | 247 | 0.0 | 0.0 | 0.00 | 0.00 | 0.00 | 80 | 1017.1 |
| 20260508093028 | 41 | 247 | 0.0 | 0.0 | 0.00 | 0.00 | 0.00 | 78 | 1017.0 |
| 20260508091528 | 42 | 247 | 0.0 | 1.0 | 0.00 | 0.00 | 0.00 | 76 | 1017.1 |
| 20260508090030 | 43 | 247 | 0.0 | 1.0 | 0.00 | 0.00 | 0.00 | 75 | 1017.1 |
| 20260508084532 | 43 | 247 | 0.0 | 1.0 | 0.00 | 0.00 | 0.00 | 74 | 1017.2 |
| 20260508083032 | 44 | 249 | 0.0 | 2.0 | 0.00 | 0.00 | 0.00 | 71 | 1017.2 |
| 20260508081529 | 45 | 151 | 0.0 | 2.0 | 0.00 | 0.00 | 0.00 | 69 | 1017.2 |
| 20260508080038 | 46 | 112 | 0.0 | 1.0 | 0.00 | 0.00 | 0.00 | 66 | 1017.2 |
| 20260508074531 | 46 | 112 | 0.0 | 1.0 | 0.00 | 0.00 | 0.00 | 67 | 1017.3 |
| 20260508073054 | 47 | 112 | 0.0 | 3.0 | 0.00 | 0.00 | 0.00 | 66 | 1017.3 |
| 20260508071532 | 48 | 114 | 0.0 | 3.0 | 0.00 | 0.00 | 0.00 | 64 | 1017.4 |
| 20260508070035 | 48 | 117 | 0.0 | 4.0 | 0.00 | 0.00 | 0.00 | 64 | 1017.3 |
| 20260508064536 | 48 | 129 | 2.0 | 5.0 | 0.00 | 0.00 | 0.00 | 62 | 1017.4 |
| 20260508061532 | 52 | 145 | 2.0 | 6.0 | 0.00 | 0.00 | 0.00 | 54 | 1017.6 |
| 20260508060108 | 52 | 193 | 2.0 | 5.0 | 0.00 | 0.00 | 0.00 | 52 | 1017.7 |
| 20260508053031 | 54 | 194 | 4.0 | 7.0 | 0.00 | 0.00 | 0.00 | 45 | 1017.8 |
| 20260508051529 | 57 | 195 | 5.0 | 8.0 | 0.00 | 0.00 | 0.00 | 40 | 1017.8 |
| 20260508050029 | 58 | 200 | 7.0 | 12.0 | 0.00 | 0.00 | 0.00 | 37 | 1017.8 |
| 20260508043032 | 58 | 197 | 7.0 | 14.0 | 0.00 | 0.00 | 0.00 | 35 | 1017.7 |
| 20260508041530 | 59 | 205 | 5.0 | 9.0 | 0.00 | 0.00 | 0.00 | 33 | 1017.7 |
| 20260508040032 | 59 | 207 | 6.0 | 10.0 | 0.00 | 0.00 | 0.00 | 34 | 1017.4 |
| 20260508034532 | 60 | 213 | 6.0 | 12.0 | 0.00 | 0.00 | 0.00 | 34 | 1017.4 |
| 20260508031531 | 61 | 212 | 7.0 | 13.0 | 0.00 | 0.00 | 0.00 | 31 | 1017.1 |
| 20260508030105 | 62 | 211 | 8.0 | 17.0 | 0.00 | 0.00 | 0.00 | 30 | 1017.1 |
| 20260508024530 | 63 | 226 | 8.0 | 15.0 | 0.00 | 0.00 | 0.00 | 31 | 1017.0 |
| 20260508023031 | 64 | 226 | 6.0 | 13.0 | 0.00 | 0.00 | 0.00 | 30 | 1016.9 |
| 20260508021529 | 65 | 226 | 7.0 | 14.0 | 0.00 | 0.00 | 0.00 | 30 | 1016.7 |
| 20260508020029 | 66 | 233 | 7.0 | 16.0 | 0.00 | 0.00 | 0.00 | 29 | 1016.7 |
| 20260508013103 | 68 | 245 | 8.0 | 18.0 | 0.00 | 0.00 | 0.00 | 28 | 1016.7 |
| 20260508010032 | 69 | 239 | 9.0 | 16.0 | 0.00 | 0.00 | 0.00 | 25 | 1016.8 |